ECMWFFLT2_925_rhum_120.txt.gz
RH
77 75 76 75 78 80 76 78 79 76 75 76 75 71 71 71 72 72 71 71 71 71 72 73 74 73 73 75 78 82 83 85 86 82 78 72 55 34 23 20 20 20 20 20 21 22 22 22 22 22 22 23
77 77 78 78 79 78 77 78 77 76 75 75 75 73 72 73 73 73 73 73 75 76 76 76 76 77 76 76 78 83 87 90 81 62 54 48 36 27 21 18 18 18 18 18 18 19 19 20 20 20 21 21
78 80 79 77 75 72 69 66 65 67 72 75 74 72 71 71 72 74 76 77 80 81 80 79 80 79 76 75 76 81 89 83 59 35 29 30 25 21 18 17 16 14 14 14 14 15 16 16 17 18 19 20
80 79 78 74 69 64 61 56 56 60 66 66 62 64 65 64 64 68 75 79 82 81 79 77 79 81 76 77 76 81 89 69 37 21 17 16 15 14 13 13 12 11 11 11 11 11 12 12 13 14 15 18
79 79 77 73 67 63 64 61 60 60 58 53 51 54 57 57 55 56 64 68 71 69 68 73 81 86 80 76 77 86 87 60 31 18 13 11 10 9 10 9 9 10 8 9 9 8 9 9 10 11 12 14
78 81 78 72 69 67 68 67 63 57 51 46 44 46 46 47 45 47 51 53 58 54 54 67 78 83 85 85 86 87 76 54 36 20 12 11 9 8 8 8 8 8 8 8 8 7 8 7 8 8 9 10
78 81 78 71 67 66 67 64 58 51 47 43 38 37 36 34 34 36 40 44 48 43 44 57 64 66 71 74 69 62 50 41 33 18 12 10 8 9 8 8 8 8 8 7 8 8 8 7 8 7 7 8
77 79 75 69 65 63 62 56 51 47 43 39 34 31 29 28 30 30 32 36 36 32 36 43 46 43 39 36 32 28 25 23 20 12 11 9 8 9 8 8 8 8 8 7 8 7 8 7 7 7 7 7
76 76 72 68 65 61 58 52 48 44 38 34 31 28 27 28 28 29 28 28 27 26 30 31 31 28 22 20 19 17 15 14 12 10 9 8 9 8 8 9 8 8 8 8 8 8 8 8 8 8 7 8
74 74 70 66 62 58 55 50 46 42 36 32 30 28 28 28 27 27 27 25 26 26 28 28 25 21 20 20 19 15 13 11 10 10 9 9 9 8 9 9 8 8 8 8 8 8 8 7 8 7 7 8
74 73 70 63 58 55 52 49 46 40 34 31 30 30 28 28 28 27 26 26 26 26 28 27 22 19 21 20 19 16 12 10 10 9 9 9 9 9 9 8 9 8 8 9 8 8 8 8 8 8 8 8
75 73 70 64 58 54 51 49 45 39 34 32 31 30 29 28 28 27 26 26 26 27 29 27 22 20 21 21 19 16 12 10 10 9 9 9 9 9 9 9 9 9 9 8 8 9 8 8 8 8 8 7
76 73 70 63 57 54 51 48 44 39 36 34 32 31 30 29 29 28 27 27 27 28 29 27 23 20 21 21 20 17 13 11 10 10 9 9 9 9 9 9 9 9 9 8 9 9 8 9 8 8 8 7
76 72 69 62 56 53 51 48 44 40 37 35 34 32 31 31 30 29 28 28 27 28 29 27 23 21 21 21 21 18 14 11 10 10 9 9 9 9 10 9 10 9 9 9 9 9 9 9 8 8 9 7
76 71 67 60 56 53 50 48 44 41 39 37 35 34 33 32 31 30 29 29 28 28 29 28 25 23 22 22 22 20 16 12 10 10 9 9 9 9 10 9 10 10 9 10 9 10 9 9 9 9 9 8
76 70 64 60 56 54 50 48 45 43 40 39 37 36 35 34 33 31 31 30 29 29 28 28 28 25 23 23 23 21 17 12 10 10 9 9 9 9 10 10 10 10 9 10 9 10 10 9 10 9 9 9
77 69 63 60 57 54 51 48 46 44 43 41 39 37 37 36 35 34 32 32 31 30 29 29 29 27 26 24 24 23 18 13 11 10 9 9 9 9 10 10 10 10 10 10 10 10 10 10 10 9 9 10
77 69 62 59 57 54 51 49 47 46 44 42 41 40 39 38 37 36 35 33 32 32 31 30 30 29 28 25 25 24 20 15 11 10 10 9 9 9 9 10 9 10 10 10 10 9 10 10 9 10 9 9
79 70 63 59 58 55 52 50 48 47 46 44 44 42 42 41 39 38 37 35 34 33 32 31 31 30 29 27 25 25 22 17 13 11 10 9 9 9 9 10 10 10 10 9 10 10 10 10 10 10 10 10
83 73 66 61 58 56 54 52 49 48 47 46 45 45 44 43 42 40 39 37 35 34 34 32 32 32 31 29 26 26 24 19 15 12 11 10 9 9 9 9 10 9 9 9 9 9 10 10 10 10 10 10
86 77 70 65 61 59 57 53 50 50 49 47 46 47 47 46 44 42 41 39 38 36 35 34 33 33 33 31 28 26 25 22 18 13 11 11 9 9 9 9 10 10 9 9 9 10 10 10 10 10 10 11
89 81 75 70 65 63 60 55 53 51 49 48 48 48 48 48 45 44 43 41 40 38 36 36 34 34 34 33 30 27 26 24 19 14 12 11 10 9 9 9 9 9 9 9 9 9 9 9 10 10 10 11
90 83 77 73 70 66 62 57 53 52 50 49 49 49 49 49 47 46 45 43 41 40 38 37 36 35 35 35 32 28 27 25 20 15 13 11 11 10 9 9 9 9 9 9 9 10 9 9 10 11 11 11
90 85 81 77 74 70 65 60 56 53 52 51 50 50 50 49 48 47 45 44 42 41 40 39 37 36 36 36 34 30 28 27 24 21 17 13 12 10 9 8 9 9 9 9 9 9 9 9 10 10 10 10
90 87 84 80 78 74 71 66 61 57 54 52 51 50 50 50 49 48 46 45 43 43 42 40 39 38 37 37 35 33 31 29 28 25 19 14 12 11 9 9 9 9 9 10 11 11 10 9 10 11 10 10
89 88 86 83 81 79 76 72 68 65 60 56 52 50 51 51 51 50 48 48 46 45 44 42 41 39 38 38 37 35 32 29 28 25 20 15 13 11 10 10 9 9 11 12 13 12 11 11 10 10 9 8
84 85 85 83 82 79 78 76 72 69 64 59 55 53 53 53 53 52 52 51 50 48 46 44 43 41 40 38 38 36 32 30 28 25 22 17 14 13 12 11 9 10 11 13 14 14 22 26 19 21 22 14
78 80 81 81 79 77 75 73 70 67 65 63 60 59 57 56 56 55 55 55 53 51 49 46 44 43 42 40 39 37 34 32 30 28 25 20 15 13 14 13 11 11 11 12 16 22 36 36 26 34 36 22
72 74 76 76 75 74 72 71 69 68 68 67 65 64 61 59 58 57 57 57 55 53 51 49 47 45 43 42 41 38 35 33 32 30 28 24 19 15 15 14 13 13 12 12 14 23 36 37 41 53 42 22
69 71 71 72 71 71 70 70 69 67 67 66 64 63 61 60 59 59 58 57 57 55 53 52 49 48 45 44 42 40 37 35 33 31 29 27 23 19 17 15 15 15 13 14 13 18 29 36 46 52 37 27
69 70 70 69 69 68 68 69 68 65 64 62 62 61 61 61 60 60 59 58 58 56 55 53 51 50 48 46 44 42 39 36 35 33 31 29 26 23 19 16 17 16 16 19 17 15 22 29 32 29 29 36

ECMWFFLT2_925_rhum_123.txt.gz
RH
77 76 75 75 78 75 72 72 72 74 77 78 76 74 74 73 72 71 71 70 71 70 71 76 76 74 76 77 76 78 77 75 77 79 81 84 79 56 29 20 22 21 21 22 21 22 22 22 26 34 42 45
77 75 74 75 77 75 74 74 76 79 79 78 76 75 75 73 72 73 74 72 72 71 72 75 73 71 73 75 77 78 77 78 78 80 86 79 56 34 24 21 19 18 20 20 21 21 21 22 22 27 31 36
79 74 72 74 75 74 76 78 79 81 79 77 75 75 74 71 71 73 76 76 78 78 77 76 75 74 71 73 77 78 79 79 78 84 87 62 34 25 21 18 16 16 16 16 18 18 19 20 20 22 24 30
78 74 72 74 75 75 79 79 79 81 78 76 73 72 70 67 68 72 76 78 80 78 73 72 75 77 73 73 77 80 81 82 85 85 67 37 21 19 14 14 14 12 13 13 13 13 15 16 17 19 20 24
76 74 74 76 77 77 81 79 78 79 75 71 68 67 65 63 63 67 73 74 73 67 63 64 72 79 75 73 77 80 83 87 83 59 31 16 14 11 10 11 9 10 10 10 10 10 11 11 13 15 17 19
76 76 76 78 78 76 78 78 75 72 68 64 62 61 60 59 57 59 63 65 64 59 57 56 63 77 79 76 79 82 90 89 63 29 15 12 10 8 9 8 7 9 8 8 9 8 9 9 10 10 13 15
77 77 77 78 76 74 74 73 67 62 61 58 57 57 57 56 54 52 54 57 58 56 53 48 53 70 79 78 80 81 84 72 40 18 15 11 8 9 8 8 8 8 7 8 7 7 8 7 8 8 9 11
78 77 76 75 74 71 69 66 60 56 55 53 52 52 53 54 53 50 51 54 55 54 48 41 43 53 59 62 66 62 52 38 23 15 12 9 9 8 8 8 8 8 8 8 7 7 8 7 8 7 7 9
79 77 75 75 73 68 66 62 58 55 52 50 48 48 50 52 51 47 47 47 49 50 43 35 38 42 43 45 45 38 28 21 16 12 10 9 9 8 8 8 8 8 8 7 8 7 7 7 8 7 7 8
78 76 74 75 72 68 67 63 59 55 51 49 46 46 48 47 44 40 39 38 41 43 37 31 34 37 37 33 28 24 20 16 13 10 9 9 8 9 8 8 8 8 8 8 8 8 8 7 8 7 7 8
78 76 73 73 71 67 65 62 57 54 50 47 45 45 42 38 34 32 31 30 32 33 30 28 29 31 30 24 21 20 17 15 12 10 9 9 9 9 8 9 9 8 8 8 8 8 8 7 8 8 7 8
79 77 75 74 72 68 63 59 55 52 48 45 43 41 37 31 29 29 28 27 27 27 27 27 27 28 24 20 20 20 17 15 12 10 9 9 9 9 9 9 8 9 9 8 9 8 8 8 7 8 7 8
80 78 77 75 72 68 63 59 55 52 48 45 41 37 33 30 30 29 28 27 26 26 26 26 27 27 22 20 21 20 18 16 12 10 10 9 9 9 9 9 9 9 9 8 9 8 8 8 7 8 7 8
82 79 78 75 71 68 64 60 56 52 48 44 39 36 33 31 30 29 29 28 27 26 26 27 27 26 22 20 21 20 19 16 13 10 9 10 9 10 9 9 9 9 9 9 9 9 9 9 8 8 8 8
84 81 78 74 72 69 66 62 58 53 49 45 39 36 35 33 31 30 30 29 28 27 27 27 28 27 23 21 21 21 20 17 14 11 10 10 9 9 10 9 10 9 10 9 9 9 9 9 9 8 8 8
85 83 79 75 72 71 68 64 59 54 50 46 41 38 36 34 32 31 30 29 29 28 27 27 28 27 24 22 22 21 21 18 14 11 10 10 9 10 10 9 10 10 10 10 9 9 9 9 9 9 9 8
87 84 80 77 73 72 70 66 60 55 51 47 42 39 37 35 34 32 31 30 29 29 28 28 28 28 25 23 23 22 22 20 15 12 10 10 10 9 10 10 10 10 10 10 10 10 10 10 9 9 9 9
90 86 82 79 76 74 72 67 61 56 52 49 43 40 38 36 35 34 33 32 31 30 29 29 29 28 27 25 24 23 23 21 18 14 11 10 10 10 10 10 10 10 10 10 10 10 10 10 10 10 9 10
92 88 85 82 79 77 73 68 61 57 53 50 45 41 39 39 37 36 35 33 32 32 31 30 30 29 29 27 25 24 24 23 20 15 12 10 10 10 9 10 10 10 10 10 10 10 10 10 10 10 9 9
94 91 88 84 82 79 75 70 62 58 55 51 47 43 41 40 39 38 37 36 34 33 33 32 31 31 30 29 27 26 25 24 22 18 13 11 10 10 10 10 10 10 10 10 10 10 10 10 10 10 10 10
97 94 91 87 85 82 77 71 64 59 56 52 49 45 42 41 41 40 39 38 36 36 35 34 33 32 31 31 30 27 26 26 24 20 15 12 10 10 10 10 10 10 10 9 10 10 9 10 10 10 10 10
98 95 94 91 87 84 80 74 67 62 58 54 51 47 45 44 43 42 41 39 39 38 37 36 35 34 33 32 31 29 28 27 25 21 16 13 11 10 10 10 10 9 10 10 9 10 10 9 10 10 10 10
99 97 95 92 89 86 82 77 71 67 62 57 53 49 47 45 44 43 43 41 40 39 38 36 35 35 34 33 33 31 29 27 26 23 19 15 12 11 10 9 10 10 10 10 9 9 9 9 9 9 10 10
100 99 96 92 89 86 83 80 75 71 66 59 54 51 49 47 47 45 44 43 41 41 39 38 37 36 35 35 34 33 31 30 29 27 24 20 14 11 11 10 9 10 10 10 10 10 9 9 10 9 10 10
100 99 96 91 88 86 84 80 76 72 66 61 56 54 52 49 48 47 45 44 43 42 41 40 38 37 37 36 36 35 34 33 31 30 27 23 17 13 11 11 10 9 10 11 11 11 10 10 10 9 9 10
100 100 97 93 90 87 84 80 77 74 68 63 58 57 56 52 49 48 46 45 45 45 43 42 41 39 39 38 37 37 36 35 32 30 28 24 19 15 13 11 11 10 11 12 12 11 12 11 10 10 10 9
99 99 98 94 91 88 85 82 79 77 72 67 63 61 59 54 51 49 47 47 47 46 46 45 43 42 41 39 38 38 37 36 34 31 29 27 23 19 16 14 12 12 11 12 13 12 14 14 13 16 17 13
99 98 98 95 92 89 86 83 81 78 76 73 71 67 62 56 53 51 50 49 48 48 48 46 45 44 43 42 41 40 39 38 36 34 32 30 26 22 19 17 14 13 11 11 12 15 20 22 20 20 24 21
98 98 98 96 92 88 85 83 82 80 79 78 76 73 67 61 57 54 52 51 50 49 49 48 47 45 44 44 43 42 41 40 39 37 35 33 28 25 24 21 17 15 13 11 11 16 22 26 26 24 25 24
95 97 97 96 93 89 86 85 84 84 83 81 79 77 73 69 64 59 56 54 52 50 50 49 48 47 46 45 45 44 43 42 40 39 37 35 31 29 28 24 20 18 15 13 11 13 18 23 27 26 24 23
89 93 94 94 92 90 88 87 86 85 85 82 81 80 77 74 70 65 61 57 54 52 52 51 50 49 48 47 47 46 45 44 42 41 40 38 34 32 30 25 22 21 19 18 15 13 14 20 26 25 23 22

ECMWFFLT2_925_rhum_126.txt.gz
RH
86 85 86 85 84 84 78 76 77 76 75 75 76 76 75 73 73 74 72 70 73 77 76 74 75 75 76 77 76 75 74 77 76 75 78 76 85 73 33 19 21 21 25 29 31 33 38 46 50 50 55 62
83 80 81 80 81 82 75 76 78 74 75 77 78 77 75 73 72 73 71 70 71 73 76 73 72 75 74 74 75 73 74 78 75 78 78 77 89 62 20 21 23 20 21 20 21 23 33 46 55 53 51 59
83 79 80 79 81 79 74 77 77 73 75 77 77 76 74 72 71 72 72 71 69 70 75 73 70 73 74 73 74 75 74 76 78 80 77 82 88 52 18 20 19 20 22 20 22 21 26 37 46 45 47 60
81 79 79 79 80 77 73 74 73 74 74 73 76 74 72 70 70 72 72 72 73 73 75 73 71 71 73 75 76 76 74 77 80 78 81 86 68 31 16 17 15 17 17 18 20 20 21 24 30 35 49 63
79 78 78 76 76 74 72 72 72 75 73 70 74 72 69 68 67 70 72 74 75 73 69 68 72 72 71 75 77 77 78 78 78 82 86 68 32 13 13 12 12 13 13 15 15 17 18 19 21 27 45 60
79 78 78 76 76 74 72 73 74 77 71 68 72 70 67 66 64 66 69 71 71 70 66 64 70 74 71 74 78 78 79 78 83 88 68 32 10 10 10 8 10 10 10 11 11 12 13 15 18 20 31 49
79 78 77 76 76 75 75 76 76 75 70 66 67 67 65 63 61 61 63 64 64 65 65 61 67 75 73 74 78 80 84 87 86 69 34 11 10 9 7 8 8 7 8 8 8 9 9 11 13 15 20 39
78 77 77 76 75 75 77 78 77 73 68 65 64 64 64 61 58 57 57 60 62 62 61 59 63 71 75 77 79 75 74 75 61 33 13 11 10 7 8 8 7 8 8 7 8 7 8 8 8 11 12 26
77 75 75 75 74 74 76 77 76 73 69 66 64 63 63 60 58 57 57 61 64 62 58 55 58 67 76 77 74 63 49 44 33 16 11 10 7 8 8 7 8 8 7 7 8 7 7 8 7 9 8 16
78 74 74 74 74 74 75 75 73 72 70 67 65 64 63 61 60 59 58 58 60 59 53 50 51 60 71 70 66 57 39 28 22 14 10 9 8 9 8 8 8 7 8 8 7 8 7 7 7 8 8 13
78 75 74 74 74 73 73 74 71 69 68 66 64 64 63 60 58 58 57 54 53 54 52 49 45 50 61 61 56 49 32 20 16 12 10 9 9 8 8 8 8 8 8 8 8 8 7 7 8 8 8 12
77 75 75 74 75 73 70 69 66 63 62 62 62 63 61 56 54 55 54 51 48 48 48 45 40 41 49 49 44 35 24 18 15 12 10 9 8 9 9 8 8 9 8 8 8 8 8 8 7 7 8 9
78 76 76 76 76 73 67 64 60 57 55 56 58 60 57 52 49 51 50 46 42 41 41 39 35 36 39 37 31 24 20 18 15 12 10 9 9 9 9 9 9 8 8 9 8 8 8 8 7 8 8 8
80 79 78 76 74 70 65 62 57 55 54 52 53 54 52 48 44 45 45 40 35 34 35 33 32 34 34 31 25 20 20 19 17 14 11 9 9 9 9 9 9 9 9 8 8 9 8 8 8 7 8 9
82 81 79 77 74 69 65 63 59 56 55 53 51 50 48 44 41 40 39 35 32 31 31 30 30 32 31 28 23 20 20 19 18 15 11 9 9 9 9 9 9 9 9 9 9 8 8 8 8 8 8 9
83 81 80 78 75 72 68 65 61 59 57 54 53 51 47 43 39 36 34 31 30 30 29 28 28 29 28 27 23 20 21 20 18 15 12 10 9 9 9 9 9 9 9 9 9 9 9 8 8 8 8 9
84 82 80 79 76 74 72 69 65 61 59 57 55 53 48 43 38 34 32 30 29 29 28 27 27 27 27 27 23 21 21 20 19 17 13 10 9 9 9 9 9 9 10 10 9 9 9 9 9 8 8 10
86 83 82 81 78 76 75 73 69 63 60 59 57 53 48 43 39 35 32 30 30 29 28 27 27 27 27 27 24 22 21 21 20 18 14 11 9 9 9 10 9 10 11 10 9 10 9 10 9 9 9 9
88 85 84 82 80 79 77 75 72 67 63 60 58 55 49 44 40 37 35 32 31 31 30 29 28 27 27 27 25 23 22 21 21 19 16 12 10 9 10 10 10 10 12 10 10 10 9 10 9 10 10 9
91 88 86 85 84 82 80 78 75 71 66 62 61 58 52 46 41 39 37 35 33 33 31 30 29 28 28 28 26 23 22 22 22 20 17 13 11 11 11 11 10 11 12 11 10 10 10 10 10 10 10 10
96 93 90 89 88 86 83 81 77 73 70 66 63 61 57 48 43 41 39 37 35 34 33 31 30 29 29 28 27 24 23 23 22 21 19 15 11 12 14 14 12 12 14 13 10 10 10 10 10 11 12 11
99 97 95 93 92 90 87 85 80 76 74 72 66 62 61 53 45 42 41 38 35 33 33 32 31 31 30 29 28 26 25 24 23 22 20 17 13 12 17 20 18 16 17 14 11 12 10 10 10 11 12 12
100 99 98 96 96 94 92 90 86 82 80 77 69 64 63 58 50 45 43 40 35 34 33 33 32 32 32 30 30 28 26 25 24 24 21 18 15 12 15 22 24 22 19 14 12 13 12 10 10 11 11 10
100 100 100 99 98 96 95 93 90 88 85 81 74 67 65 61 54 51 48 44 37 34 34 33 33 33 33 32 31 30 29 28 27 26 24 20 17 13 11 18 23 21 20 20 18 18 18 14 10 10 11 11
100 100 100 99 98 97 96 94 92 91 88 84 78 72 68 62 56 51 48 45 40 36 34 33 33 33 33 33 33 32 31 30 28 28 26 21 19 16 13 17 17 14 19 23 21 22 24 22 16 11 10 12
100 100 100 98 96 96 96 94 93 92 89 85 81 76 72 67 60 53 46 43 41 37 34 34 35 36 35 35 34 34 33 31 30 28 27 25 22 19 19 22 18 12 16 18 13 15 18 19 21 18 14 14
100 100 99 98 95 94 94 93 92 91 88 85 82 78 76 73 67 60 51 47 45 41 36 35 39 40 38 37 36 35 34 33 32 30 28 27 25 24 23 25 23 15 13 14 10 10 11 11 15 20 22 19
100 100 100 99 97 95 92 91 90 90 89 87 84 81 79 77 72 66 57 51 50 48 44 40 41 43 41 39 38 37 36 35 34 33 31 30 27 26 24 24 25 19 13 13 12 10 11 11 11 15 19 18
100 100 101 99 99 96 92 90 88 88 88 87 86 83 81 78 74 70 62 53 51 51 53 48 44 46 46 42 39 38 37 37 37 35 34 33 30 27 24 21 21 23 18 13 14 13 12 16 16 15 14 14
101 99 100 100 100 97 93 91 88 87 87 86 85 83 82 80 75 72 67 60 55 54 56 53 47 47 47 43 42 41 39 38 38 38 37 36 33 30 28 23 20 24 24 17 15 15 15 19 19 16 15 14
97 100 100 100 99 97 94 92 89 87 86 85 85 83 82 80 76 72 68 64 61 60 60 55 49 50 50 46 45 44 42 40 40 40 40 39 37 34 32 28 21 22 27 24 20 17 16 19 19 18 17 15

ECMWFFLT2_925_rhum_129.txt.gz
RH
95 94 89 85 80 82 85 80 78 80 79 76 74 76 78 79 79 76 75 76 77 75 75 76 80 81 79 80 78 79 78 77 78 73 73 72 80 86 70 64 67 67 67 62 58 52 47 42 44 61 69 67
97 94 88 85 81 82 88 84 80 80 77 75 75 76 76 76 76 75 73 74 75 74 75 75 77 78 78 77 77 80 77 77 77 76 77 76 87 76 40 30 43 51 53 52 49 46 45 46 49 60 69 67
94 92 87 84 83 81 86 84 78 78 76 76 77 76 76 74 74 74 73 74 75 75 74 74 74 74 76 75 74 77 76 76 75 79 78 80 89 60 24 21 24 27 31 33 36 40 47 52 55 60 68 68
91 91 87 86 85 80 82 82 76 73 71 74 76 74 75 73 72 73 73 74 76 77 73 73 74 71 74 74 72 73 76 76 76 80 77 85 88 44 17 21 19 20 22 22 28 42 54 56 57 63 70 69
93 93 89 87 84 78 79 79 77 74 68 70 73 72 72 72 72 73 73 72 75 75 71 72 74 70 71 74 72 73 76 77 78 78 79 88 70 26 13 19 17 20 20 21 23 33 46 49 57 68 73 70
96 96 94 90 83 79 80 79 78 76 69 69 72 71 71 70 70 73 73 71 72 72 69 67 71 71 70 73 74 74 76 79 78 76 86 80 38 10 12 13 13 16 17 19 20 21 30 42 55 68 73 72
96 97 96 92 84 82 85 82 80 78 72 68 71 72 71 69 68 71 72 70 70 70 67 62 63 69 70 74 76 75 76 78 77 79 85 58 16 8 10 8 11 12 12 14 16 17 25 41 48 60 70 69
97 96 95 91 87 88 88 84 80 78 71 64 65 69 68 66 65 66 68 68 69 69 66 59 55 64 73 74 75 78 80 78 76 74 59 28 9 11 10 14 14 9 11 12 16 21 28 34 33 48 63 65
94 95 94 91 89 88 87 83 80 77 70 61 58 63 63 62 62 62 63 68 71 69 67 60 54 64 74 75 76 79 75 67 63 52 27 10 13 17 15 21 20 17 18 16 21 28 31 27 25 41 58 65
93 94 93 91 89 87 86 83 79 76 70 61 57 60 61 61 62 61 62 66 71 72 69 63 60 69 76 75 77 74 66 56 49 37 16 9 20 25 22 19 19 21 23 24 27 27 26 27 33 41 52 66
91 90 90 89 87 85 83 81 78 76 71 63 58 59 60 60 61 60 62 65 70 77 77 67 64 75 82 81 79 73 67 56 40 28 18 16 22 23 17 12 11 12 16 19 20 19 15 21 37 45 50 62
87 87 87 84 82 82 80 78 77 76 71 64 59 59 59 59 58 58 61 63 65 74 79 71 65 73 81 81 80 74 66 52 34 25 22 18 15 13 10 8 8 8 9 10 11 12 8 14 34 46 53 64
87 87 84 81 82 82 79 78 77 74 70 63 61 61 61 59 58 58 60 61 61 65 72 73 68 70 74 76 76 69 60 47 31 27 23 16 13 14 13 11 11 9 10 13 16 14 8 14 28 39 52 64
89 86 83 83 83 82 79 80 77 72 68 62 61 61 61 61 58 58 59 59 59 59 65 71 70 69 70 70 69 61 52 41 29 26 22 18 20 20 18 20 18 14 16 17 19 17 10 16 26 36 49 58
91 87 84 84 83 80 78 79 77 74 69 63 63 61 59 61 60 60 58 55 54 55 58 60 60 61 61 59 59 53 45 34 26 24 20 16 20 21 22 25 20 20 22 16 14 14 10 16 26 35 46 54
92 89 86 85 83 81 79 77 74 74 71 65 64 61 59 61 61 62 58 52 50 50 48 47 48 51 50 47 47 44 38 29 23 23 19 15 18 20 24 26 20 22 25 20 16 11 9 15 20 29 41 51
90 89 87 84 82 80 79 77 73 71 69 63 62 61 60 61 63 63 57 50 47 45 41 38 40 42 39 38 38 36 32 26 20 21 19 15 14 16 23 26 19 19 24 25 20 13 12 17 17 22 32 44
89 88 86 84 82 80 79 77 75 72 68 63 60 58 59 61 64 62 54 47 43 42 37 33 35 34 32 34 34 32 28 23 21 22 20 16 13 14 20 26 22 17 23 25 21 17 16 19 20 17 24 39
90 88 86 84 83 81 80 78 76 75 69 64 61 57 56 59 62 60 54 46 41 39 35 32 32 31 31 32 31 30 27 23 23 26 24 18 17 18 20 28 27 21 25 25 22 21 16 21 25 19 23 31
91 90 88 85 85 85 84 81 79 78 74 68 64 59 56 58 60 61 57 48 41 37 33 31 30 30 31 31 29 29 27 24 25 27 25 20 20 24 23 28 29 24 26 26 24 24 20 24 24 22 26 24
92 92 89 87 86 87 86 84 82 80 77 73 69 64 61 59 58 61 59 51 44 37 31 30 30 31 32 30 29 29 27 24 25 26 25 22 22 26 27 30 30 25 26 26 25 26 24 25 22 23 28 25
93 93 90 89 87 87 86 86 85 83 81 78 72 68 64 60 59 62 60 55 49 41 35 34 32 33 32 29 29 29 27 24 25 25 24 23 21 24 28 30 29 25 25 27 26 26 25 24 21 23 27 27
93 94 92 90 90 90 90 90 89 87 85 81 75 71 67 63 62 63 62 57 52 45 41 40 36 34 32 30 29 28 27 25 25 24 24 24 21 21 25 27 28 26 25 28 27 25 26 24 21 22 25 27
93 96 96 94 95 95 94 94 92 90 88 84 79 76 72 69 67 65 63 59 53 47 44 43 40 36 32 30 29 28 28 26 25 25 24 24 22 21 25 29 29 27 27 29 28 26 26 24 21 21 25 26
97 98 100 99 99 98 96 96 96 95 93 88 83 80 77 74 71 68 66 60 56 51 47 44 41 37 33 31 31 30 29 28 26 26 24 25 26 25 28 32 33 32 29 26 26 26 27 26 24 20 21 23
98 97 98 97 95 95 96 97 97 96 94 91 87 84 82 79 75 73 70 63 59 55 50 47 43 37 33 32 32 31 30 29 27 27 26 27 31 32 31 31 33 33 27 22 20 20 22 25 26 22 19 19
99 98 97 95 92 90 92 94 92 91 93 93 92 88 83 81 80 78 74 68 63 58 53 51 47 40 36 34 33 32 31 31 30 29 28 28 32 36 33 30 31 30 23 19 17 15 16 18 22 25 25 23
98 99 97 94 94 92 91 91 90 91 93 93 92 90 86 83 82 80 77 71 67 62 57 54 51 44 38 36 34 33 33 34 34 32 30 30 31 34 33 29 31 30 23 17 16 14 13 12 14 19 24 26
95 99 100 97 98 98 95 93 92 93 95 94 93 91 88 86 83 81 77 73 70 66 61 57 54 48 42 40 37 35 36 37 37 35 34 32 31 32 30 27 29 33 29 20 16 14 12 14 15 13 16 22
91 94 99 100 99 99 97 95 93 93 93 93 92 89 87 87 86 84 80 76 75 71 65 61 56 52 49 46 41 37 38 39 40 39 37 34 33 31 30 27 26 31 34 27 20 16 13 18 20 15 14 16
88 89 93 99 100 99 97 95 93 91 89 88 87 85 86 87 88 87 84 81 78 74 69 63 59 55 53 50 44 42 43 43 43 42 40 37 35 33 32 30 25 26 33 32 27 21 17 19 20 20 19 15

ECMWFFLT2_925_rhum_132.txt.gz
RH
93 90 90 87 84 85 86 88 92 86 83 86 84 85 83 80 81 76 76 78 76 76 76 77 77 76 78 79 78 79 76 74 72 69 73 80 81 82 90 95 81 69 68 61 52 46 37 47 65 68 68 66
95 94 93 89 85 86 86 87 88 82 82 87 84 86 82 77 78 77 79 79 79 78 78 79 78 77 78 79 78 78 76 75 74 72 77 80 80 83 88 83 69 66 66 57 51 43 37 51 67 68 67 65
96 97 96 93 90 89 86 83 81 80 83 84 84 85 80 76 78 81 80 78 80 80 81 80 78 78 77 78 77 75 75 75 75 77 78 78 87 82 62 58 64 66 62 56 50 41 42 57 66 66 65 65
99 99 96 91 89 86 83 82 81 81 82 82 84 83 79 77 77 79 77 76 78 79 82 79 78 78 76 77 76 74 75 76 77 77 78 85 86 58 27 32 48 54 55 52 45 40 51 61 64 66 64 63
100 98 92 87 87 84 81 82 81 80 80 79 81 80 77 76 75 76 75 75 75 76 77 75 77 76 73 73 73 75 75 78 79 76 85 82 56 27 18 23 25 29 35 35 39 47 58 61 63 68 67 63
99 95 91 89 91 89 83 80 77 78 78 76 79 80 76 73 74 75 74 74 71 68 68 71 77 76 75 73 73 77 76 78 77 80 86 57 20 13 17 18 18 21 21 25 41 56 57 56 63 70 69 65
98 95 96 94 94 95 88 82 78 77 75 73 78 79 74 73 75 75 74 75 69 64 61 65 73 76 78 76 76 79 80 79 77 84 70 26 7 13 12 14 18 19 19 22 32 46 49 49 61 71 70 69
98 98 100 94 95 96 90 85 81 77 73 72 77 79 74 72 76 75 75 77 72 65 62 63 70 74 76 77 77 79 81 79 78 77 46 13 10 9 7 11 12 14 17 18 20 29 36 41 58 69 68 70
98 100 100 96 96 95 89 84 81 79 73 71 76 78 75 71 74 75 75 77 73 67 63 63 68 72 75 76 75 75 76 76 76 64 29 10 11 7 9 9 8 11 11 14 17 22 27 34 52 64 66 70
99 100 100 99 98 93 89 84 82 80 73 71 76 78 75 72 73 72 71 72 70 68 62 60 63 70 75 74 72 69 64 63 61 45 20 9 11 13 14 11 10 12 11 14 16 19 23 28 42 56 65 69
100 99 100 101 98 92 88 86 86 84 76 73 77 79 76 73 72 70 69 69 68 67 63 58 58 65 72 71 69 64 52 45 38 26 14 9 16 21 17 11 11 12 15 16 16 18 19 23 33 46 61 67
99 98 99 99 96 93 90 89 88 83 76 72 75 80 77 73 70 68 68 68 67 66 64 58 55 60 68 70 69 66 54 41 30 20 15 12 17 20 14 10 10 11 14 15 16 15 14 21 29 38 54 65
98 95 96 95 93 92 89 87 83 79 77 72 74 79 78 73 67 65 64 66 66 65 65 61 58 59 65 71 72 71 63 52 38 23 18 16 15 15 10 9 8 9 11 12 13 10 11 18 26 35 48 61
96 93 96 96 91 88 85 82 81 79 79 75 73 74 76 72 63 58 56 61 64 62 64 62 61 62 65 71 73 75 69 64 51 29 20 18 15 13 9 8 8 8 10 12 12 8 9 15 24 32 42 59
97 93 96 96 90 88 88 86 84 81 79 75 71 69 74 72 61 54 50 55 60 61 64 62 63 65 67 70 73 76 70 65 55 33 22 19 16 14 13 13 10 10 12 14 14 10 9 14 24 29 38 56
98 94 93 92 91 91 93 92 89 84 81 77 72 68 71 69 60 54 51 52 57 61 63 60 61 66 68 69 72 74 67 61 51 33 23 21 20 17 19 20 15 17 16 13 13 10 10 14 22 29 35 51
98 96 94 93 93 92 91 91 88 85 82 78 74 69 68 67 62 56 53 53 56 59 60 58 61 64 66 66 68 68 61 54 43 31 24 22 22 20 23 24 19 23 21 15 13 9 9 13 20 28 33 43
98 98 98 96 95 94 92 90 86 83 82 80 76 71 69 69 65 59 54 53 56 57 57 58 60 61 62 63 63 61 55 48 37 29 25 22 22 21 24 25 20 22 25 22 16 11 10 12 16 23 28 36
97 98 98 95 94 95 95 92 88 86 84 81 77 73 72 72 68 62 55 53 55 56 55 55 56 55 56 56 54 51 48 42 35 28 25 23 21 21 23 24 20 20 24 25 20 15 13 13 14 17 24 31
94 94 96 95 93 93 93 92 90 90 88 84 80 78 76 76 74 67 60 55 56 56 55 53 50 49 49 49 46 43 40 37 33 27 24 23 20 19 21 24 22 19 23 24 20 17 14 17 18 15 21 26
92 92 95 96 94 92 91 92 91 91 89 85 83 81 77 77 75 71 65 61 60 58 56 52 48 46 46 45 41 38 36 33 31 26 25 25 22 18 18 25 25 21 24 24 21 20 16 20 21 16 19 20
92 92 93 94 93 90 89 91 92 90 88 85 83 80 76 75 74 72 71 68 65 62 57 53 48 45 44 41 38 35 33 32 29 26 25 25 24 22 20 24 25 22 26 26 23 22 20 21 21 19 20 19
95 93 91 92 92 91 90 90 93 94 90 85 84 82 78 77 76 75 74 71 69 66 59 55 49 44 41 39 37 34 32 31 29 26 27 26 25 26 24 23 23 22 25 26 25 24 23 23 19 20 24 22
97 95 92 91 92 94 92 90 94 96 93 89 87 86 84 83 82 78 74 73 72 67 60 54 49 44 41 39 36 34 32 31 28 25 26 25 24 26 26 25 24 23 24 26 26 25 24 24 21 21 25 25
98 98 95 93 94 94 91 90 94 97 97 93 88 86 85 84 84 80 78 76 73 68 61 54 48 44 41 39 36 33 31 29 27 25 24 25 24 24 26 27 27 24 25 26 28 29 27 25 22 21 25 25
92 95 96 98 96 93 91 91 93 95 95 95 92 89 87 84 83 83 82 78 73 71 65 56 50 45 41 39 37 34 31 29 28 26 25 26 26 25 24 25 28 26 25 28 29 28 29 29 27 22 22 24
82 85 89 96 99 98 96 95 95 94 94 96 96 94 90 86 83 83 83 80 77 74 69 60 53 48 43 40 39 35 33 32 30 29 28 27 26 27 26 24 27 28 25 26 25 25 30 34 34 31 27 25
75 78 81 85 92 97 99 100 99 98 98 98 97 95 92 88 84 82 81 80 78 76 72 67 58 51 49 46 42 37 35 33 31 30 29 29 28 28 30 29 29 28 25 23 23 26 28 27 32 37 36 31
68 74 77 80 84 89 94 99 99 99 100 100 99 97 93 89 86 83 80 79 79 77 75 72 63 57 56 52 44 39 37 35 31 30 30 31 30 29 31 31 31 32 28 23 20 22 22 24 33 34 31 32
63 69 74 81 88 91 94 99 98 96 99 100 100 99 97 93 91 88 83 81 80 79 79 76 69 64 61 56 48 43 41 38 34 32 32 32 31 31 31 31 33 35 32 26 20 18 17 23 31 25 23 30
61 65 68 74 83 88 93 99 96 91 93 98 99 99 99 97 95 92 88 85 83 83 83 81 76 70 65 60 54 50 48 46 43 38 36 34 32 33 34 32 34 34 34 31 24 18 15 17 21 19 21 29

ECMWFFLT2_925_rhum_135.txt.gz
RH
90 89 89 86 80 81 88 92 91 80 76 78 83 87 80 80 85 86 86 83 82 84 83 81 83 83 83 81 78 78 70 68 79 83 82 87 91 90 94 95 78 63 57 49 45 52 62 67 67 65 63 63
90 92 94 86 81 86 87 88 88 79 76 79 82 85 81 83 84 84 83 81 81 80 80 79 78 78 79 78 78 79 73 69 77 81 81 82 85 90 95 88 69 60 55 46 45 54 63 67 67 66 65 63
95 93 93 86 81 86 88 88 85 79 79 78 79 83 82 80 79 81 81 79 80 79 78 76 76 76 74 76 75 74 74 74 76 79 81 80 85 92 88 75 63 58 52 45 43 53 64 66 66 65 65 66
99 94 92 88 81 85 92 92 87 80 77 74 76 80 77 75 77 80 79 78 80 78 76 75 77 74 73 75 73 73 74 77 79 78 82 85 87 82 72 66 64 60 52 46 41 49 62 64 65 63 63 67
99 95 95 92 86 90 94 92 86 79 76 75 74 76 73 72 77 81 79 80 81 78 76 76 76 73 74 74 73 76 74 79 82 81 86 77 61 49 51 62 64 62 57 51 42 45 60 63 64 64 63 66
98 98 99 98 95 97 95 90 85 81 83 81 76 74 72 71 74 79 80 77 76 76 76 76 75 74 77 76 75 77 75 80 80 85 85 51 28 27 40 59 63 61 57 54 47 44 57 62 63 66 62 63
97 98 101 100 99 99 93 89 88 88 89 86 80 74 73 78 77 78 77 71 69 71 73 75 77 77 80 79 78 79 78 80 80 89 76 30 17 22 29 46 52 53 51 51 47 42 53 61 62 67 64 60
96 95 99 99 98 97 90 89 90 90 89 87 82 75 77 84 80 77 75 71 72 73 75 79 79 79 80 80 80 79 79 81 82 83 53 17 17 19 18 26 30 36 38 38 38 41 53 60 62 67 65 60
97 96 99 99 99 96 91 90 90 90 90 87 81 77 80 83 79 76 76 75 78 78 78 78 76 77 77 78 80 78 79 80 79 66 30 11 15 15 17 19 18 23 24 26 33 45 54 58 62 67 67 63
99 99 99 98 99 99 96 92 89 90 90 86 80 78 79 80 78 75 75 74 75 77 79 77 76 77 76 76 78 77 77 75 74 57 21 11 14 12 16 16 18 19 19 22 28 40 49 53 59 66 69 65
100 100 98 96 95 95 96 91 88 88 87 85 80 77 75 75 77 75 74 71 65 67 72 76 79 79 76 74 74 74 72 71 75 56 19 11 13 12 14 14 16 18 19 21 21 28 36 44 55 65 69 67
100 99 100 97 94 95 95 91 87 87 85 83 80 78 74 70 75 76 76 73 64 61 61 68 79 80 76 71 68 70 69 66 69 50 19 13 12 10 11 11 13 14 16 18 19 22 25 32 49 64 68 68
99 98 100 99 98 99 97 90 86 85 83 81 80 79 75 69 71 75 76 76 70 63 60 63 73 77 74 69 64 66 66 54 45 32 17 13 11 10 10 9 11 11 12 13 14 17 20 24 40 61 67 66
95 96 99 100 100 99 96 92 86 83 79 75 75 74 73 70 68 69 73 75 73 67 64 63 66 69 70 69 63 64 61 43 29 21 16 13 10 10 9 8 9 9 10 10 10 12 15 18 29 50 64 66
92 95 99 99 99 100 96 91 86 83 80 74 71 69 70 71 68 67 70 73 74 70 68 64 62 63 66 68 66 64 57 44 35 28 20 16 13 10 8 8 8 8 9 9 10 10 11 15 21 36 56 65
91 92 98 99 98 100 97 91 87 85 83 78 76 73 69 69 69 67 69 71 73 71 69 66 62 63 65 67 67 66 61 53 49 42 30 20 16 12 9 8 8 8 8 8 8 8 9 13 17 25 44 62
91 90 94 99 100 100 99 97 93 89 86 85 85 83 75 71 71 70 70 70 71 71 69 65 62 62 63 64 64 67 66 61 58 53 37 22 16 14 10 9 9 9 9 9 8 8 8 10 14 18 32 54
92 92 92 97 100 100 100 100 96 90 88 88 90 91 84 76 73 72 70 70 70 70 69 65 61 59 59 61 62 66 69 65 62 55 39 23 18 16 12 11 11 11 12 12 11 10 10 10 13 15 23 45
93 91 91 94 96 97 99 100 97 92 91 92 93 94 90 83 77 73 71 69 68 68 69 67 63 60 58 58 60 64 67 64 59 52 38 24 20 19 17 17 16 15 16 15 12 11 12 12 14 15 18 35
96 92 91 91 91 93 96 99 100 98 97 96 96 92 89 89 84 79 75 71 69 67 68 68 64 61 60 59 59 62 66 63 56 49 38 25 21 21 20 22 21 19 20 17 14 11 11 12 14 16 16 25
96 96 96 94 92 93 95 97 99 99 99 99 99 95 91 91 89 84 80 76 71 67 67 68 65 63 63 63 61 62 64 61 54 47 37 27 22 21 21 22 21 21 22 20 17 13 10 11 12 15 15 17
88 92 94 96 96 97 96 96 97 96 98 97 96 98 96 93 90 87 83 79 75 70 69 70 68 66 67 65 64 63 62 58 51 44 35 27 23 21 20 20 19 20 22 21 19 15 12 12 13 13 13 12
79 82 84 89 94 99 99 99 99 96 95 92 90 93 95 93 92 90 87 83 78 74 73 73 72 70 70 68 66 64 60 54 47 40 33 27 24 22 20 18 17 16 17 19 19 17 16 17 17 15 13 13
72 76 79 82 85 93 100 100 99 96 92 89 88 89 90 90 90 89 88 85 81 80 78 77 74 72 71 69 66 63 58 51 44 38 32 27 24 23 21 19 17 15 17 21 22 21 19 20 22 20 18 18
70 75 82 88 86 86 96 99 99 98 94 91 90 89 89 89 89 88 87 85 84 84 81 78 75 72 70 67 63 59 53 47 42 37 32 28 25 23 22 23 21 19 21 25 27 27 24 24 25 23 24 25
68 72 79 90 86 79 85 92 96 100 99 97 96 94 92 90 89 89 89 88 87 86 83 80 78 74 70 65 61 56 50 44 40 35 32 29 27 25 23 25 25 23 25 29 31 31 30 30 28 23 24 27
66 69 72 79 78 73 76 81 87 93 95 99 100 99 97 94 93 92 91 91 89 87 86 83 79 76 72 67 61 56 51 44 38 35 31 28 27 28 27 27 27 25 24 27 29 31 34 35 32 29 27 26
62 63 63 66 68 68 70 72 75 78 81 86 92 98 100 99 98 95 91 89 88 87 86 84 81 78 74 69 64 59 52 46 39 35 32 29 27 28 31 31 29 26 23 23 25 30 37 38 36 34 31 28
59 60 58 59 61 63 66 68 71 74 77 76 79 89 97 100 100 98 95 91 90 90 87 84 82 79 76 71 68 61 55 48 41 37 35 32 30 28 29 31 32 30 26 22 19 21 30 36 39 38 32 29
58 65 66 65 65 67 69 71 74 81 87 87 82 81 87 97 100 100 99 96 96 95 91 88 84 80 76 72 69 64 58 51 45 42 42 39 33 30 28 29 33 34 30 25 19 15 17 22 28 31 31 32
52 62 69 69 69 70 70 71 72 75 82 90 86 77 78 86 94 99 101 98 96 96 95 92 89 84 80 74 69 65 60 55 50 46 48 46 39 34 31 29 33 35 33 30 25 19 14 15 17 17 24 31

ECMWFFLT2_925_rhum_138.txt.gz
RH
93 98 98 95 94 95 96 90 85 80 82 87 67 63 82 78 74 79 78 81 83 84 89 87 84 82 76 74 76 78 81 88 88 85 90 93 88 89 89 75 67 65 62 66 67 64 65 65 68 71 74 75
95 97 92 92 92 92 96 90 88 85 83 80 62 62 80 79 75 79 78 81 83 83 87 87 85 83 77 75 73 75 82 85 88 88 91 93 90 91 84 71 67 60 54 63 67 65 64 64 66 66 68 72
98 94 90 92 90 90 94 89 88 86 84 77 64 66 73 73 74 80 82 83 86 85 83 83 83 81 78 77 72 75 82 81 82 87 92 91 88 90 79 68 65 57 49 57 67 67 64 63 64 64 65 68
96 93 95 93 87 87 86 83 82 80 82 80 72 71 67 65 69 76 80 83 88 80 77 80 80 80 79 79 74 74 82 83 82 83 88 86 88 88 74 63 59 54 48 49 60 67 65 62 62 62 61 63
93 93 97 90 86 87 82 83 85 82 82 81 78 76 71 71 74 80 82 85 88 77 77 81 79 81 80 80 78 77 81 85 85 83 84 85 90 84 66 60 54 49 46 44 50 61 66 63 60 61 60 60
96 96 96 86 89 93 88 90 89 85 82 78 78 80 80 83 85 87 86 86 86 79 78 79 77 81 79 80 81 81 83 84 86 86 85 84 86 75 61 59 55 50 48 45 47 55 63 63 60 60 61 59
96 98 96 85 90 97 97 96 91 88 83 76 78 82 84 87 88 87 85 83 84 81 78 76 77 77 76 78 81 84 83 82 89 88 80 78 76 67 60 58 56 56 53 49 48 51 60 62 61 62 62 58
95 99 99 92 91 97 100 97 95 93 85 81 82 84 84 86 87 85 83 81 81 78 76 75 75 74 75 76 80 83 79 81 92 84 68 68 67 62 61 57 56 58 54 50 47 50 60 62 61 63 63 63
93 97 99 98 96 98 101 98 98 95 87 87 86 83 83 87 87 83 82 81 79 77 76 76 74 74 74 76 80 81 80 81 83 69 50 53 59 57 59 58 56 57 55 52 46 49 59 62 61 62 62 68
85 92 96 99 100 100 100 100 99 93 90 89 86 81 80 85 85 81 81 80 79 77 77 77 75 76 75 77 79 79 82 76 67 51 32 36 46 48 53 55 55 55 54 53 48 48 57 62 62 61 60 65
77 82 90 97 98 99 100 99 97 93 91 87 83 78 73 78 81 80 80 80 80 78 79 78 77 79 77 78 78 77 79 71 65 47 21 23 31 33 42 47 48 48 47 49 45 45 57 63 61 61 60 61
77 74 83 94 95 97 99 97 97 93 87 81 79 75 70 71 75 77 77 76 78 79 80 79 80 83 80 79 78 79 77 70 72 54 23 21 24 22 29 31 32 33 33 35 34 37 51 60 60 60 60 60
83 79 84 95 98 98 99 99 99 93 85 83 82 78 73 71 72 73 72 70 70 72 77 80 82 84 82 81 79 81 79 71 72 53 21 18 22 19 22 21 21 22 21 23 27 34 47 58 60 59 61 60
88 88 91 95 99 97 96 100 98 92 89 89 86 82 78 73 70 69 68 68 66 66 74 81 82 81 81 82 79 79 80 75 72 53 21 13 18 18 20 20 20 20 19 20 23 31 43 54 60 59 60 62
92 91 93 95 99 98 97 99 96 93 93 90 86 83 79 74 68 66 68 69 69 66 69 77 80 78 79 81 79 77 77 74 72 61 31 12 14 16 17 18 19 20 20 21 21 25 31 41 54 60 61 64
96 93 91 91 96 100 99 99 98 98 96 92 87 82 83 84 76 71 73 73 72 69 67 71 76 78 79 79 79 77 75 71 71 68 40 16 14 13 13 14 14 15 17 19 20 21 23 27 43 59 64 65
95 95 93 89 91 99 100 97 98 99 98 93 85 83 88 90 85 79 78 78 75 72 68 68 70 74 77 79 78 76 75 71 70 63 37 17 15 11 11 11 11 13 13 13 14 15 18 19 30 51 64 64
90 95 97 95 93 98 100 95 92 94 97 94 89 91 90 85 84 82 80 82 81 76 72 70 67 67 73 78 76 75 73 71 67 50 25 15 14 11 12 10 9 12 13 12 12 11 13 14 19 36 56 63
87 91 95 98 98 99 100 97 94 94 94 95 96 97 95 87 85 84 81 83 85 84 79 74 70 66 70 75 75 74 71 71 65 43 24 18 15 14 13 10 9 10 10 11 11 11 12 14 16 24 41 57
81 84 87 93 98 99 100 99 99 98 94 95 98 100 99 94 91 90 88 85 86 86 85 80 75 72 73 73 73 74 73 73 65 45 32 25 19 17 14 11 11 10 10 9 8 10 9 11 15 19 29 47
74 76 79 85 92 95 97 98 99 100 97 96 97 98 98 94 94 96 94 90 88 84 84 83 81 81 80 76 74 74 74 73 66 53 44 36 24 18 15 12 13 14 13 11 10 9 9 8 9 12 17 31
68 72 73 76 82 86 90 93 98 99 100 99 96 96 95 94 96 98 95 94 93 88 85 84 84 84 83 80 77 76 76 73 66 58 53 45 30 19 17 15 14 16 16 15 13 13 12 10 8 8 9 15
59 63 67 71 73 78 82 87 94 97 97 99 98 98 97 97 97 95 94 96 96 92 89 88 87 85 83 82 81 80 77 74 68 61 55 48 34 22 19 18 14 14 17 18 16 15 15 15 12 10 10 11
57 58 65 71 71 75 78 78 83 86 89 93 96 98 98 98 98 96 96 95 93 92 90 89 86 85 84 82 82 81 77 75 72 67 59 50 39 28 22 22 19 16 18 21 20 17 15 17 18 17 17 17
66 65 67 72 75 81 81 75 74 77 78 84 89 94 97 98 99 98 98 96 92 89 88 87 85 84 83 82 82 81 77 76 75 72 63 51 41 32 26 26 24 21 21 24 27 26 24 23 23 22 22 22
71 70 68 70 73 78 80 73 73 75 73 75 79 84 91 96 99 99 99 99 97 92 89 88 87 86 84 83 83 82 80 79 76 71 63 52 44 36 29 27 26 25 24 27 30 31 32 31 29 27 24 23
68 68 65 67 67 69 73 70 70 71 67 68 73 76 81 87 93 99 100 99 99 98 97 95 91 89 88 85 84 83 82 81 76 69 61 55 48 38 32 30 28 26 24 26 28 30 34 36 34 32 29 26
60 61 56 58 60 59 63 63 62 60 57 59 66 73 78 82 85 91 97 99 100 100 100 99 98 94 91 87 84 83 82 80 76 69 62 57 49 40 36 33 31 27 23 23 25 31 38 39 35 33 30 29
50 55 54 53 53 51 52 56 59 60 61 61 63 67 73 80 85 87 91 95 98 100 100 100 100 99 96 92 89 85 83 80 76 72 67 60 50 45 42 35 31 30 26 24 20 24 34 38 38 35 29 27
43 50 56 59 61 63 65 67 68 70 72 70 68 68 66 70 78 83 87 91 95 98 100 100 100 100 99 97 94 90 86 82 79 75 70 63 54 51 48 40 36 33 29 28 23 18 23 29 32 31 28 27
42 45 50 56 64 69 73 75 74 73 72 69 68 68 64 62 65 71 77 84 90 95 98 99 99 100 99 99 97 93 88 84 81 77 72 66 57 52 49 45 44 40 34 32 29 22 19 21 23 21 23 27

ECMWFFLT2_925_rhum_141.txt.gz
RH
87 87 87 88 89 94 99 98 92 89 90 89 86 87 87 82 77 75 77 80 78 75 76 77 76 77 81 85 86 87 88 87 88 84 81 82 91 98 92 82 71 67 68 66 64 63 61 60 59 56 61 71
88 88 92 91 89 94 96 95 95 89 85 85 80 84 87 77 77 81 84 91 86 77 78 81 78 74 76 83 85 87 89 88 86 86 87 86 93 94 79 73 71 67 68 69 68 66 65 64 64 63 69 77
92 96 99 96 94 93 86 82 83 79 77 80 79 83 83 75 82 91 93 92 79 70 78 83 74 70 75 79 81 85 91 91 86 89 91 88 93 87 71 71 73 67 67 69 69 69 70 71 72 73 75 78
95 98 99 98 97 92 85 84 79 77 78 79 79 82 80 81 88 96 95 77 66 66 73 81 70 66 71 70 79 86 89 89 86 92 92 89 92 83 70 71 73 68 66 66 68 69 71 75 75 76 78 79
98 98 95 95 96 92 88 86 81 81 84 81 83 89 85 85 88 88 86 68 66 74 72 76 65 63 67 64 80 88 87 86 86 92 92 91 92 82 70 69 72 69 67 65 65 66 68 71 72 75 79 79
95 98 96 92 94 97 92 88 88 88 90 85 85 94 84 79 83 78 81 73 72 83 82 79 69 72 79 75 82 84 85 86 81 84 88 92 92 82 70 66 70 67 65 65 63 64 66 67 68 72 77 78
91 96 99 96 97 98 94 93 94 92 91 83 80 91 84 81 85 77 84 86 83 91 92 84 77 81 84 82 82 82 84 83 79 79 84 91 91 81 66 62 67 64 61 63 63 63 63 65 65 66 70 76
93 95 96 98 100 99 96 95 95 92 89 82 84 91 88 91 93 88 92 94 93 97 95 86 80 83 83 80 80 85 86 83 82 81 85 90 89 77 62 58 61 60 57 58 62 63 62 62 63 62 62 70
98 97 96 95 97 99 99 100 97 94 92 87 91 93 91 93 91 92 94 92 93 94 93 86 81 83 83 81 81 85 87 86 86 83 86 89 85 73 58 55 53 53 54 54 57 60 63 61 60 60 58 65
97 99 98 93 92 93 94 100 100 96 97 93 94 93 88 86 83 87 91 93 93 89 88 85 82 84 82 83 83 84 84 87 89 86 89 86 80 69 57 56 52 51 53 52 53 54 61 62 59 59 57 60
93 97 99 96 93 91 89 96 100 99 98 94 95 92 82 78 79 83 88 94 92 84 86 84 83 83 82 83 83 84 82 84 88 89 89 84 76 62 56 57 53 54 55 55 52 50 57 61 61 60 58 57
94 97 100 99 97 95 93 91 91 97 100 92 90 91 84 77 78 84 88 92 87 80 83 84 82 81 82 82 82 84 82 79 82 84 83 79 69 52 50 55 52 54 54 55 54 49 54 59 61 61 60 63
96 98 99 100 100 98 97 92 86 92 99 90 87 90 87 80 82 89 90 89 85 81 81 81 80 79 80 80 81 83 83 78 72 72 72 68 58 42 43 51 51 54 53 54 55 50 54 60 62 60 62 67
95 96 98 98 100 100 99 99 92 92 98 94 89 88 85 81 83 88 89 87 84 82 80 79 79 79 79 80 81 82 83 80 69 64 60 52 46 39 39 42 45 50 51 52 54 52 53 59 63 60 61 65
94 95 98 98 98 100 100 100 98 96 99 99 96 91 86 84 82 84 87 86 85 82 76 75 79 80 80 80 81 81 81 80 74 67 58 43 34 35 35 34 37 40 43 47 49 51 52 56 62 61 60 62
93 97 99 100 99 100 100 100 100 98 94 95 99 97 93 92 90 87 86 86 85 81 74 74 79 80 81 80 80 81 80 80 78 74 67 46 26 25 28 28 30 30 32 36 40 45 50 56 60 60 60 60
89 97 98 99 100 100 100 100 100 99 95 93 97 100 98 98 94 87 86 86 84 81 79 79 82 82 83 84 82 82 81 80 78 77 74 54 29 20 21 22 22 23 23 25 30 37 46 55 60 61 62 62
80 92 97 97 98 100 100 100 100 100 99 98 99 100 100 99 95 88 88 89 86 87 86 84 84 84 86 87 87 85 82 81 79 78 76 62 41 21 16 18 18 19 20 20 23 28 37 49 58 63 64 64
71 83 93 95 93 95 99 99 100 100 99 100 100 100 100 100 98 95 93 92 88 89 91 87 85 85 86 88 88 87 85 83 80 79 76 69 54 27 13 16 18 18 19 19 21 23 27 33 44 57 64 65
63 71 83 90 90 86 90 95 97 100 100 100 100 99 100 100 100 99 98 97 94 93 93 90 88 88 88 87 87 87 86 85 83 82 77 72 63 37 16 16 16 16 16 16 18 19 22 24 29 43 58 67
56 61 69 81 89 83 80 84 87 92 97 97 99 100 100 100 100 100 100 100 99 97 94 92 93 93 93 90 88 87 87 87 85 83 78 74 66 39 19 17 15 15 14 13 15 16 18 20 23 32 49 65
48 54 60 66 78 80 75 76 77 81 87 91 95 98 99 100 100 100 100 100 100 100 97 96 94 92 91 91 89 88 87 87 86 83 78 73 59 32 18 17 15 13 12 11 13 14 14 16 19 24 36 53
39 41 49 54 62 68 68 71 72 72 77 83 86 91 95 98 100 100 100 100 100 100 100 98 94 90 88 89 89 89 89 89 88 83 74 63 45 26 20 20 17 14 13 13 14 15 16 16 18 21 27 39
37 36 42 46 54 64 64 65 68 67 72 79 82 85 88 91 95 98 99 100 100 100 100 100 98 95 91 89 87 86 86 85 85 83 75 62 44 31 27 25 21 19 18 18 20 21 22 22 22 25 28 32
43 47 52 50 52 63 67 65 64 60 63 72 79 83 87 88 90 93 97 99 100 100 100 100 100 99 96 92 87 84 82 80 81 82 80 72 56 43 37 31 27 25 25 25 27 27 27 27 27 28 30 32
47 49 54 57 55 56 62 65 63 60 58 63 69 72 79 87 91 92 94 97 98 99 100 100 100 100 99 97 93 90 88 87 86 83 81 76 64 54 49 44 40 39 39 34 29 30 29 27 27 26 28 30
49 48 47 54 56 52 54 57 58 56 48 46 52 57 63 72 82 90 93 96 97 98 98 99 100 100 100 100 99 97 95 93 90 86 83 77 70 64 59 56 56 56 55 46 33 30 30 29 28 25 25 25
47 48 45 48 53 53 55 57 56 51 37 29 31 38 49 57 64 75 84 89 94 97 98 99 99 99 100 100 100 100 99 96 92 88 84 80 76 73 66 64 65 65 65 59 46 38 36 37 33 26 24 23
42 44 43 43 47 51 56 60 63 64 56 43 34 33 40 48 52 57 67 76 82 88 93 97 99 99 99 99 99 100 100 99 96 92 88 84 80 77 73 71 71 69 69 67 55 43 41 42 40 33 27 23
38 41 44 45 49 53 56 60 63 71 73 65 59 50 42 39 40 44 52 60 67 73 81 89 94 96 98 98 99 99 100 100 99 95 91 88 84 79 76 76 78 74 72 71 59 46 41 39 37 34 27 24
38 40 45 47 51 54 56 59 60 64 69 69 68 64 55 45 36 35 40 48 56 60 66 74 81 88 93 96 98 98 97 98 100 99 94 90 86 81 77 79 83 80 77 78 70 58 50 43 38 32 27 25

ECMWFFLT2_925_rhum_144.txt.gz
RH
98 92 88 93 87 74 72 76 80 87 96 92 86 89 89 94 98 90 84 77 76 74 72 77 72 74 83 82 85 86 86 87 87 87 84 87 92 95 91 84 88 85 74 73 73 70 68 68 64 61 60 64
100 97 93 97 88 70 73 87 92 95 100 96 95 95 88 92 90 81 80 73 72 73 72 82 78 79 90 90 90 90 85 84 85 84 84 89 95 99 87 72 73 75 72 72 71 69 68 68 63 58 55 59
98 100 98 99 91 76 79 93 92 92 97 95 94 89 79 78 77 73 75 76 75 74 76 82 84 86 90 89 92 95 91 86 87 85 87 93 96 96 83 68 67 71 73 71 69 67 65 66 61 56 53 58
96 99 100 99 97 86 77 79 75 74 79 79 78 76 73 70 71 72 75 85 83 81 84 83 86 88 87 89 91 94 92 88 86 83 86 91 92 90 80 69 68 71 72 69 67 65 64 64 60 56 57 66
92 96 100 100 99 90 73 69 71 74 73 72 75 72 73 74 74 72 77 93 93 92 93 84 84 86 87 90 88 89 88 87 85 82 84 86 87 87 80 72 70 72 73 70 68 66 64 62 59 58 65 74
88 92 97 99 100 97 85 74 70 79 81 79 81 80 81 79 77 76 84 97 98 98 94 84 85 87 90 88 84 86 88 90 90 88 88 89 90 87 77 72 71 72 74 73 72 71 65 61 60 61 68 77
85 90 93 95 100 99 96 89 81 84 84 81 82 86 88 82 83 88 94 100 99 94 85 83 87 85 83 87 89 84 85 91 91 87 90 96 95 88 79 71 70 70 71 73 74 75 71 66 65 64 65 71
86 91 91 92 98 99 98 97 95 91 85 83 82 86 88 81 90 100 96 97 94 80 72 77 85 79 70 82 89 81 86 90 88 86 89 98 96 88 80 70 70 69 68 71 71 74 74 72 71 70 67 65
91 92 91 91 94 98 100 97 98 96 93 91 82 83 86 83 93 102 95 92 85 71 69 75 82 80 72 79 81 83 94 90 89 92 91 97 96 91 80 69 71 70 68 69 68 70 71 71 71 71 73 70
96 93 93 94 93 95 98 99 100 99 100 97 86 82 84 89 94 95 97 94 83 74 77 80 83 82 79 83 83 87 94 87 88 93 91 94 94 94 81 69 72 70 69 68 66 69 67 68 67 63 70 74
97 96 97 97 95 96 98 100 100 100 100 98 93 86 82 90 89 85 95 96 83 79 84 86 82 81 82 85 86 88 87 86 86 85 88 91 91 94 82 70 73 69 68 67 65 67 66 66 65 61 64 72
95 98 99 99 97 98 100 100 99 100 99 96 94 92 91 92 83 78 89 90 86 85 90 93 83 81 86 83 84 85 83 84 84 83 86 86 87 93 82 67 71 71 65 65 65 65 65 64 63 62 62 65
92 99 100 100 100 99 100 100 99 100 100 99 95 94 99 97 88 85 85 86 93 95 96 97 87 83 87 84 84 84 83 83 82 82 84 86 85 88 80 63 64 70 66 64 64 63 63 63 62 61 59 60
87 97 100 99 101 100 100 100 100 100 99 101 99 97 100 99 97 97 91 89 98 99 97 97 90 85 87 86 84 83 84 82 82 79 79 84 82 82 79 61 56 64 67 67 63 62 61 62 62 60 58 58
82 91 97 98 99 99 100 100 100 101 99 100 100 100 101 100 100 100 98 96 98 97 95 95 90 87 89 89 87 85 85 83 83 79 74 76 73 76 78 60 53 57 62 67 66 64 63 62 63 62 61 59
75 82 90 93 95 97 96 96 98 99 100 99 100 100 100 100 100 100 100 99 99 98 96 95 92 90 89 89 89 88 87 85 84 82 79 77 69 70 72 58 52 52 54 61 66 68 67 65 65 64 64 63
65 70 76 80 87 92 90 91 92 95 99 100 100 100 100 100 100 100 100 100 100 99 96 94 91 91 90 89 89 89 87 87 86 84 83 79 68 60 58 52 47 47 48 51 56 63 67 69 67 66 66 65
55 60 62 64 72 80 82 85 88 89 92 96 99 100 100 100 100 100 100 100 100 100 97 95 91 90 92 93 92 90 88 88 87 85 83 79 72 58 44 40 38 37 39 41 44 50 58 65 68 68 68 67
40 49 53 52 55 63 72 78 85 87 87 90 93 97 100 100 100 100 100 100 100 100 100 99 96 93 93 94 94 93 91 90 89 87 84 79 77 65 40 27 27 27 28 30 31 36 43 52 61 66 68 69
23 31 41 44 40 44 55 64 74 83 86 87 88 90 94 97 99 100 100 100 100 100 100 100 100 98 96 95 95 96 94 93 91 89 87 83 81 72 47 27 23 21 21 22 22 24 29 36 46 57 64 68
14 16 26 34 31 29 34 43 55 68 78 83 87 88 89 91 95 97 99 100 100 100 100 100 100 100 99 98 97 98 97 95 93 90 89 86 81 70 52 39 31 23 19 20 21 20 22 25 31 40 52 61
14 11 15 23 23 22 23 26 35 46 58 70 81 88 89 89 89 92 95 97 99 99 100 100 100 100 100 100 99 98 98 96 94 92 89 86 79 68 56 47 39 27 20 19 20 21 20 21 24 28 34 44
16 13 13 15 13 15 17 20 25 28 37 49 62 75 85 89 89 90 92 93 95 96 98 100 100 100 100 100 100 99 98 96 95 93 90 86 80 72 65 58 46 30 22 21 21 21 21 21 22 24 27 32
18 16 17 18 15 18 18 16 22 28 32 37 41 51 64 78 86 90 91 92 93 93 95 98 99 100 100 100 100 100 99 96 95 93 90 88 83 78 73 66 54 33 21 22 21 21 22 21 20 20 23 28
27 27 27 28 29 32 31 22 20 26 34 41 39 34 38 52 68 80 86 90 92 92 93 95 96 97 98 99 100 100 100 98 97 95 91 88 85 83 77 70 60 41 24 23 24 24 22 20 20 19 21 25
35 35 35 37 37 38 40 37 32 28 29 38 41 33 27 31 42 57 70 80 88 92 92 94 95 96 97 98 99 99 100 100 99 97 94 90 85 82 79 75 69 55 41 34 31 30 31 28 22 19 18 20
37 38 36 38 40 37 39 42 42 37 27 24 32 35 31 28 29 35 45 57 70 82 89 93 95 96 97 97 99 99 99 100 100 100 97 92 87 82 78 74 70 65 60 53 51 54 59 49 33 28 23 18
32 34 33 34 37 38 39 40 41 42 35 25 25 29 32 36 35 30 32 38 47 61 74 83 91 94 96 96 97 99 99 100 100 100 99 95 90 84 79 75 69 67 65 64 72 82 85 71 59 56 37 20
28 26 28 30 33 37 40 42 42 45 48 42 35 30 33 40 41 34 33 32 35 44 52 63 75 85 92 95 95 96 98 100 100 100 100 98 93 87 83 80 73 69 66 68 77 85 90 85 85 80 52 35
30 28 29 31 37 46 50 51 51 52 55 53 49 43 36 33 33 35 35 32 32 36 41 47 56 67 78 86 91 94 95 98 100 100 100 100 98 93 90 88 83 77 73 76 82 84 86 84 85 80 62 56
32 32 36 37 39 47 53 56 55 54 54 54 53 50 41 32 29 32 34 34 33 33 36 41 45 51 60 69 79 86 90 94 97 99 100 100 101 99 96 94 93 88 83 83 86 87 86 83 82 78 67 63

ECMWFFLT2_925_rhum_150.txt.gz
RH
67 73 75 76 81 86 93 98 97 96 99 100 94 88 89 93 92 92 99 99 93 95 95 91 88 82 80 81 85 93 89 87 96 96 92 90 90 86 79 79 84 90 92 92 91 92 93 90 87 84 80 80
69 73 77 77 80 87 92 96 97 98 100 100 99 96 94 96 96 93 93 92 88 87 84 81 81 76 78 79 83 94 92 89 97 98 95 93 95 93 83 77 80 87 90 88 86 87 90 87 81 78 77 78
73 75 79 79 80 88 94 94 94 97 99 99 100 98 94 89 81 75 74 75 75 75 72 74 77 74 76 80 86 93 91 93 98 99 98 95 95 96 92 88 85 87 87 87 87 86 84 80 77 73 70 70
76 77 79 82 81 85 94 96 94 97 99 100 100 99 97 88 79 73 70 71 71 73 71 70 73 70 69 71 79 87 92 96 98 99 99 94 91 90 89 89 85 84 84 85 87 84 78 75 76 75 72 69
78 78 80 85 84 85 93 98 97 98 100 99 98 98 99 96 93 88 83 80 78 79 77 73 71 67 64 63 71 82 92 99 99 99 99 94 89 86 83 82 79 78 82 87 87 83 78 75 74 73 73 71
77 78 81 85 87 90 94 99 100 99 99 99 96 95 97 98 99 96 94 91 85 84 82 77 75 76 70 68 76 84 91 98 99 99 99 95 89 86 81 77 77 74 79 89 89 84 80 76 73 71 71 69
76 77 80 81 85 89 92 96 99 100 99 97 95 92 93 96 98 99 99 98 94 91 90 85 82 83 79 79 88 94 94 95 99 100 99 94 88 86 78 72 77 76 79 88 87 83 79 73 71 69 68 67
72 76 77 77 79 83 86 89 92 97 100 98 96 94 95 96 98 100 100 99 97 93 94 94 91 87 82 87 96 100 97 93 97 100 97 91 86 84 76 66 72 78 80 84 82 78 74 69 68 67 67 69
64 69 74 74 75 78 80 83 85 89 95 97 97 96 98 98 99 99 100 100 96 93 92 94 96 88 80 89 99 99 98 95 97 99 94 90 88 86 77 65 67 77 80 81 80 77 73 70 68 67 66 69
58 61 67 70 73 77 78 80 81 83 86 91 94 96 98 98 99 99 99 100 99 99 96 96 99 90 77 85 98 99 97 98 99 100 96 92 92 90 83 74 72 76 78 80 81 79 75 73 73 72 67 66
52 55 57 60 65 71 77 79 80 81 81 83 86 90 94 95 97 98 99 99 99 100 100 99 100 95 82 82 95 100 97 97 98 98 95 93 93 91 87 83 80 78 77 80 81 79 76 74 77 77 73 71
46 48 44 46 51 56 64 72 77 81 80 78 80 81 86 90 92 95 97 99 100 99 100 100 100 99 92 87 93 101 98 96 98 98 95 91 92 90 87 85 82 77 75 79 84 83 78 77 80 80 79 78
40 41 37 38 41 39 41 52 63 71 76 78 79 78 79 82 86 89 92 95 98 100 99 99 99 100 99 89 85 93 99 95 94 97 98 95 93 90 87 86 82 77 74 76 83 87 85 84 84 82 81 81
32 37 39 40 38 32 29 34 43 50 62 71 77 79 78 79 81 83 87 90 93 97 99 100 99 99 100 91 76 74 85 90 88 90 97 98 95 92 89 86 84 79 74 73 77 84 87 87 87 85 82 79
22 31 38 35 32 32 29 30 33 35 42 54 66 74 76 79 80 80 82 85 88 91 95 98 100 99 99 98 89 78 77 84 86 87 94 97 94 94 91 88 85 80 75 72 73 77 82 83 84 84 83 79
15 25 31 29 26 26 28 30 30 28 28 34 48 60 68 75 79 79 79 81 84 87 90 93 97 100 99 99 100 97 89 87 87 87 93 96 95 94 92 90 86 81 77 73 71 72 75 77 77 79 81 81
13 18 23 27 25 18 20 26 26 27 25 23 31 44 56 67 73 76 79 80 81 82 85 87 90 96 99 99 99 100 100 97 94 91 91 94 96 94 92 89 85 82 79 75 72 71 72 73 73 74 75 76
14 14 15 19 18 11 11 17 20 26 27 22 23 29 40 56 68 74 78 81 81 80 80 83 85 89 94 98 100 99 100 100 99 97 93 92 92 91 89 87 85 83 79 76 73 70 70 70 71 71 71 71
20 19 16 14 11 7 7 10 14 17 22 24 25 25 25 37 56 70 75 77 80 81 80 81 83 86 89 93 98 100 100 100 100 100 96 92 89 88 87 86 85 82 78 76 72 70 70 69 69 70 69 69
23 24 22 18 13 9 8 10 10 9 15 21 22 24 21 21 35 52 65 74 79 82 82 82 81 83 86 89 93 97 99 99 100 100 98 94 90 88 87 86 87 82 75 72 68 65 67 68 69 69 69 68
29 29 27 25 19 12 11 14 13 9 12 15 14 16 17 16 21 30 45 61 75 83 85 85 85 83 83 85 89 91 94 96 98 99 100 98 91 87 85 82 81 78 71 68 65 61 60 62 65 67 69 69
35 36 34 34 30 23 19 19 18 15 14 14 12 12 12 13 16 19 26 40 58 75 83 87 89 88 85 84 86 88 89 90 93 95 98 100 95 87 82 77 72 66 61 59 61 59 55 54 55 58 61 64
37 37 36 36 37 34 31 26 22 19 17 17 14 11 11 11 12 15 18 23 35 53 70 81 87 89 89 87 86 87 88 88 90 92 94 96 96 91 83 79 74 66 58 53 52 53 53 50 46 46 50 52
36 36 35 34 35 35 36 35 31 27 22 20 16 9 9 12 10 12 14 16 21 31 47 64 78 86 90 90 88 88 90 93 94 94 94 95 97 95 89 83 78 72 65 57 50 46 45 44 39 34 34 36
37 36 36 35 34 33 34 37 36 35 29 22 19 12 8 10 10 10 12 13 15 20 28 40 57 73 84 90 92 93 96 95 94 94 94 94 95 97 95 91 85 77 68 62 62 57 46 37 31 27 24 25
39 39 38 36 36 35 34 36 36 38 36 29 28 22 12 9 10 9 11 11 12 15 19 24 35 51 68 82 89 93 95 94 92 92 92 92 93 95 97 97 95 89 78 75 83 85 73 56 42 32 22 21
39 38 37 37 36 36 34 35 37 40 41 37 33 30 20 13 11 10 11 11 11 12 15 17 22 31 44 60 75 84 89 91 92 94 94 94 95 95 94 96 99 98 93 91 92 92 91 85 75 63 45 31
39 39 39 41 42 43 41 41 42 40 41 41 37 34 28 18 13 12 12 12 11 12 13 14 16 20 26 36 50 64 76 86 91 95 97 97 98 98 95 97 98 98 98 98 95 91 92 92 90 89 78 59
42 44 44 42 42 42 41 40 40 37 38 42 42 40 33 24 18 13 12 13 11 11 12 12 13 14 18 22 28 38 51 67 80 88 95 97 99 99 99 99 98 98 98 98 99 97 94 92 90 93 90 79
47 48 44 42 40 39 38 36 36 37 40 43 44 44 39 33 26 17 14 17 14 13 13 12 12 11 13 16 19 23 29 40 55 69 83 92 96 99 100 100 99 98 97 95 97 99 98 97 95 96 93 89
52 51 46 46 46 43 42 40 37 38 41 43 44 45 44 41 36 25 20 20 17 15 15 14 14 12 12 13 14 16 19 25 34 46 62 74 85 93 96 98 100 100 98 95 96 98 99 99 99 99 96 94